Location: Melizzano
(41.1500°N, 14.5000°E)
Time: 08:09:01
(UTC+00:00)

Cosmos 2154 Rocket - Pass Details

Date: 11 May 2021
Orbit: 965 x 997 km, 82.9° (Epoch: 20 June)

Event Time Altitude Azimuth Distance (km) Brightness Sun altitude
Rises 20:59:34 0° 352° (N) 3,717 8.1 -24.7°
Reaches altitude 10° 21:02:06 10° 353° (N) 2,760 7.2 -24.9°
Maximum altitude 21:08:28 87° 84° (E) 991 3.9 -25.5°
Enters shadow 21:09:45 60° 169° (S) 1,119 3.9 -25.6°
